EDW224M LSZH-LEPA

Flight info

Callsign EDW224M
Flight time N/A
Altitude 33000
Route VEBIT T50 ROTOS Z669 ULMES DCT VADAR/N0456F410 DCT GEVEA DCT INCUS DCT BALSI DCT RETNO DCT TUPOX DCT MTG DCT DIVKO DCT VATIR DCT PIVUS DCT BODEQ DCT VERSO L129 LUNIK
Aircraft A343/H-SDE2E3FGHIJ4J5M1RWXY/LB1D1

Departure

Time 2026-04-30 12:57
Airport Zürich Airport (LSZH)

Arrival

Time N/A
Airport Palma de Mallorca Airport (LEPA)
Time Latitude Longitude Altitude Speed Heading
2026-04-30 12:35 47.46038 8.55736 1407 ft 0 kts
2026-04-30 12:48 47.46056 8.55739 1415 ft 0 kts
2026-04-30 12:48 47.46034 8.55736 1415 ft 4 kts
2026-04-30 12:49 47.46007 8.55732 1411 ft 4 kts
2026-04-30 12:49 47.45980 8.55728 1408 ft 4 kts
2026-04-30 12:49 47.45958 8.55728 1415 ft 4 kts 333°
2026-04-30 12:49 47.45945 8.55753 1414 ft 4 kts 277°
2026-04-30 12:50 47.45944 8.55793 1411 ft 4 kts 271°
2026-04-30 12:50 47.45945 8.55803 1410 ft 3 kts 276°
2026-04-30 12:50 47.45946 8.55799 1410 ft 0 kts 276°
2026-04-30 12:52 47.45948 8.55766 1412 ft 7 kts 276°
2026-04-30 12:52 47.45954 8.55662 1410 ft 12 kts 274°
2026-04-30 12:52 47.45943 8.55570 1415 ft 5 kts 222°
2026-04-30 12:52 47.45914 8.55561 1413 ft 5 kts 189°
2026-04-30 12:53 47.45878 8.55497 1415 ft 14 kts 265°
2026-04-30 12:53 47.45888 8.55316 1411 ft 20 kts 276°
2026-04-30 12:53 47.45900 8.55143 1402 ft 10 kts 276°
2026-04-30 12:53 47.45910 8.55008 1398 ft 18 kts 276°
2026-04-30 12:54 47.45928 8.54772 1400 ft 26 kts 276°
2026-04-30 12:54 47.45946 8.54499 1395 ft 27 kts 275°
2026-04-30 12:54 47.45966 8.54227 1407 ft 26 kts 276°
2026-04-30 12:54 47.45984 8.53961 1402 ft 26 kts 276°
2026-04-30 12:55 47.45984 8.53821 1404 ft 10 kts 257°
2026-04-30 12:55 47.45915 8.53772 1408 ft 13 kts 178°
2026-04-30 12:55 47.45891 8.53822 1410 ft 2 kts 99°
2026-04-30 12:55 47.45888 8.53853 1409 ft 0 kts 97°
2026-04-30 12:56 47.45888 8.53854 1409 ft 1 kts 97°
2026-04-30 12:56 47.45877 8.53989 1408 ft 37 kts 96°
2026-04-30 12:56 47.45826 8.54718 1398 ft 103 kts 96°
2026-04-30 12:57 47.45731 8.56030 1426 ft 151 kts 96°
2026-04-30 12:57 47.45577 8.57595 1927 ft 159 kts 98°
2026-04-30 12:57 47.45408 8.59254 2629 ft 166 kts 98°
2026-04-30 12:57 47.45237 8.61066 2994 ft 190 kts 97°
2026-04-30 12:58 47.45086 8.63057 3536 ft 198 kts 92°
2026-04-30 12:58 47.45191 8.65098 4370 ft 204 kts 76°
2026-04-30 12:58 47.45790 8.67027 5355 ft 212 kts 58°
2026-04-30 12:58 47.46907 8.68501 6271 ft 221 kts 33°
2026-04-30 12:59 47.48411 8.69154 7237 ft 231 kts
2026-04-30 12:59 47.50015 8.68837 8165 ft 239 kts 347°
2026-04-30 12:59 47.51093 8.68289 8505 ft 259 kts 338°
2026-04-30 12:59 47.52867 8.65705 9417 ft 283 kts 293°
2026-04-30 13:00 47.53162 8.63811 10014 ft 288 kts 271°
2026-04-30 13:00 47.52813 8.60858 10720 ft 300 kts 249°
2026-04-30 13:00 47.51874 8.58041 11395 ft 313 kts 239°
2026-04-30 13:00 47.50726 8.55163 11754 ft 335 kts 239°
2026-04-30 13:01 47.49537 8.52062 12080 ft 357 kts 240°
2026-04-30 13:01 47.48321 8.48824 12239 ft 362 kts 241°
2026-04-30 13:01 47.47104 8.45567 12243 ft 359 kts 241°
2026-04-30 13:01 47.45890 8.42327 12248 ft 360 kts 241°
2026-04-30 13:02 47.44682 8.39114 12260 ft 361 kts 240°
2026-04-30 13:02 47.43452 8.35871 12581 ft 364 kts 240°
2026-04-30 13:02 47.42205 8.32603 13401 ft 367 kts 240°
2026-04-30 13:02 47.40511 8.28178 14382 ft 376 kts 241°
2026-04-30 13:03 47.39655 8.25943 14886 ft 377 kts 241°
2026-04-30 13:03 47.38362 8.22569 15770 ft 377 kts 241°
2026-04-30 13:03 47.37065 8.19185 16520 ft 382 kts 241°
2026-04-30 13:03 47.35745 8.15744 17217 ft 388 kts 241°
2026-04-30 13:04 47.34404 8.12257 17965 ft 392 kts 241°
2026-04-30 13:04 47.33050 8.08744 18754 ft 394 kts 241°
2026-04-30 13:04 47.31685 8.05205 19352 ft 400 kts 241°
2026-04-30 13:04 47.30300 8.01622 19967 ft 404 kts 241°
2026-04-30 13:05 47.28901 7.98007 20639 ft 407 kts 241°
2026-04-30 13:05 47.27491 7.94366 21266 ft 411 kts 241°
2026-04-30 13:05 47.26067 7.90696 21851 ft 415 kts 241°
2026-04-30 13:06 47.23175 7.83254 23102 ft 422 kts 241°
2026-04-30 13:06 47.21730 7.79542 23666 ft 426 kts 241°
2026-04-30 13:06 47.20249 7.75743 24140 ft 430 kts 240°
2026-04-30 13:06 47.18618 7.72037 24618 ft 433 kts 234°
2026-04-30 13:07 47.16817 7.68463 25081 ft 437 kts 232°
2026-04-30 13:07 47.14945 7.64908 25538 ft 440 kts 231°
2026-04-30 13:07 47.13041 7.61376 25967 ft 444 kts 231°
2026-04-30 13:07 47.11103 7.57817 26412 ft 447 kts 231°
2026-04-30 13:08 47.09144 7.54230 26867 ft 450 kts 231°
2026-04-30 13:08 47.07178 7.50630 27299 ft 453 kts 231°
2026-04-30 13:08 47.05204 7.47009 27701 ft 457 kts 231°
2026-04-30 13:08 47.03212 7.43352 28097 ft 460 kts 231°
2026-04-30 13:09 47.01210 7.39671 28513 ft 463 kts 231°
2026-04-30 13:09 46.99197 7.35985 29029 ft 462 kts 230°
2026-04-30 13:09 46.97209 7.32361 29452 ft 464 kts 230°
2026-04-30 13:09 46.95175 7.28662 29814 ft 468 kts 230°
2026-04-30 13:10 46.93132 7.24929 30204 ft 470 kts 230°
2026-04-30 13:10 46.91079 7.21186 30542 ft 472 kts 230°
2026-04-30 13:10 46.89019 7.17438 30899 ft 474 kts 230°
2026-04-30 13:10 46.86946 7.13669 31235 ft 476 kts 231°
2026-04-30 13:11 46.84870 7.09901 31553 ft 478 kts 231°
2026-04-30 13:11 46.82775 7.06102 31880 ft 479 kts 231°
2026-04-30 13:11 46.80681 7.02309 32193 ft 481 kts 231°
2026-04-30 13:11 46.78574 6.98497 32566 ft 481 kts 231°
2026-04-30 13:12 46.76474 6.94704 32996 ft 480 kts 231°
2026-04-30 13:12 46.74375 6.90916 33172 ft 479 kts 231°
2026-04-30 13:12 46.72313 6.87201 33184 ft 463 kts 231°
2026-04-30 13:13 46.68352 6.80080 33196 ft 449 kts 231°
2026-04-30 13:13 46.66382 6.76547 33348 ft 450 kts 231°
2026-04-30 13:13 46.62249 6.69549 33639 ft 461 kts 226°
2026-04-30 13:14 46.60024 6.66147 33793 ft 466 kts 226°
2026-04-30 13:14 46.57760 6.62752 34059 ft 468 kts 226°
2026-04-30 13:14 46.53271 6.55981 34716 ft 467 kts 226°
2026-04-30 13:15 46.51038 6.52569 35017 ft 467 kts 227°
2026-04-30 13:15 46.46588 6.45722 35628 ft 466 kts 227°
2026-04-30 13:15 46.44365 6.42294 35919 ft 465 kts 227°
2026-04-30 13:16 46.42157 6.38891 36316 ft 462 kts 227°
2026-04-30 13:16 46.39952 6.35499 36535 ft 464 kts 227°
2026-04-30 13:16 46.37737 6.32098 36892 ft 461 kts 227°
2026-04-30 13:17 46.33356 6.25384 37629 ft 457 kts 227°
2026-04-30 13:17 46.31197 6.22083 37886 ft 457 kts 227°
2026-04-30 13:17 46.26388 6.15977 38404 ft 459 kts 214°
2026-04-30 13:18 46.23589 6.13765 38695 ft 460 kts 204°
2026-04-30 13:18 46.17454 6.11322 39085 ft 462 kts 191°
2026-04-30 13:18 46.14291 6.10563 39275 ft 462 kts 189°
2026-04-30 13:19 46.11107 6.09884 39466 ft 462 kts 189°
2026-04-30 13:19 46.07928 6.09232 39635 ft 462 kts 189°
2026-04-30 13:19 46.04752 6.08577 39826 ft 461 kts 189°
2026-04-30 13:19 46.01572 6.07908 40009 ft 461 kts 189°
2026-04-30 13:20 45.98398 6.07226 40189 ft 461 kts 190°
2026-04-30 13:20 45.95220 6.06533 40367 ft 461 kts 190°
2026-04-30 13:20 45.92045 6.05834 40537 ft 461 kts 190°
2026-04-30 13:20 45.88872 6.05133 40705 ft 461 kts 190°
2026-04-30 13:21 45.85699 6.04432 40878 ft 461 kts 190°
2026-04-30 13:21 45.82524 6.03731 41041 ft 461 kts 190°
2026-04-30 13:22 45.72919 6.01604 41145 ft 470 kts 191°
2026-04-30 13:22 45.63280 5.99483 41127 ft 467 kts 191°
2026-04-30 13:23 45.53640 5.97369 41129 ft 467 kts 191°
2026-04-30 13:24 45.40878 5.94181 41134 ft 466 kts 195°
2026-04-30 13:25 45.28239 5.90001 41143 ft 466 kts 195°
2026-04-30 13:26 45.12417 5.85075 41149 ft 465 kts 194°
2026-04-30 13:28 44.96657 5.80219 41141 ft 463 kts 195°
2026-04-30 13:28 44.87204 5.77313 41142 ft 463 kts 195°
2026-04-30 13:29 44.74622 5.73463 41143 ft 461 kts 195°
2026-04-30 13:31 44.58988 5.68701 41146 ft 460 kts 195°
2026-04-30 13:32 44.43354 5.63966 41148 ft 459 kts 195°
2026-04-30 13:33 44.31244 5.58706 41148 ft 455 kts 204°
2026-04-30 13:34 44.22454 5.53864 41147 ft 454 kts 204°
2026-04-30 13:35 44.10678 5.47411 41142 ft 455 kts 204°
2026-04-30 13:36 43.98915 5.41030 41135 ft 454 kts 204°
2026-04-30 13:36 43.90073 5.36245 41131 ft 455 kts 204°
2026-04-30 13:37 43.81226 5.31469 41142 ft 454 kts 204°
2026-04-30 13:38 43.72412 5.26726 41151 ft 453 kts 204°
2026-04-30 13:39 43.60999 5.19711 41157 ft 448 kts 212°
2026-04-30 13:40 43.52823 5.13447 41155 ft 448 kts 212°
2026-04-30 13:40 43.47395 5.09244 41156 ft 447 kts 212°
2026-04-30 13:41 43.41978 5.05070 41154 ft 446 kts 212°
2026-04-30 13:41 43.36549 5.00903 41148 ft 446 kts 212°
2026-04-30 13:42 43.31153 4.96774 41140 ft 446 kts 213°
2026-04-30 13:42 43.23048 4.90588 41141 ft 443 kts 212°
2026-04-30 13:43 43.17666 4.86489 41135 ft 442 kts 212°
2026-04-30 13:43 43.12264 4.82383 41121 ft 443 kts 213°
2026-04-30 13:44 43.07781 4.78982 41135 ft 442 kts 213°
2026-04-30 13:44 43.02400 4.74908 41133 ft 442 kts 212°
2026-04-30 13:45 42.94311 4.68798 41173 ft 441 kts 212°